Tracking 32420 objects as of 8-Dec-2025
HD Live streaming from Space Station
objects crossing your sky now

HULIANWANG DIGUI-03

Track HULIANWANG DIGUI-03 now!
10-day predictions


NORAD ID: 62325
Int'l Code: 2024-240C
Perigee: 1,173.8 km
Apogee: 1,176.3 km
Inclination: 86.5 °
Period: 108.7 minutes
Semi major axis: 7546 km
RCS: Unknown
Launch date: December 16, 2024
Source: People's Republic of China (PRC)
Launch site: Wenchang Satellite Launch Center (WSC)
Your satellite tracking list
Your tracking list is empty




NASA's NSSDC Master Catalog

Two Line Element Set (TLE):
1 62325U 24240C   25341.92966772  .00000080  00000-0  15178-3 0  9996
2 62325  86.4974  47.6905 0001664  93.7999 266.3325 13.24414416 47325
Source of the keplerian elements: AFSPC